QPF
0.00 0.00 0.00 0.00 0.00 0.00 0.00 0.00 0.00 0.00 0.00 0.00 0.00 0.00 0.00 0.00 0.00 0.00 0.00 0.00 0.00 0.00
0.00 0.00 0.00 0.00 0.00 0.00 0.00 0.00 0.00 0.00 0.00 0.00 0.00 0.00 0.00 0.00 0.00 0.00 0.00 0.00 0.00 0.00
0.00 0.00 0.00 0.00 0.00 0.00 0.00 0.00 0.00 0.00 0.00 0.00 0.00 0.00 0.00 0.00 0.00 0.00 0.00 0.00 0.00 0.00
0.00 0.00 0.00 0.00 0.00 0.00 0.00 0.00 0.00 0.00 0.00 0.00 0.00 0.00 0.00 0.03 0.03 0.01 0.00 0.00 0.00 0.00
0.00 0.00 0.00 0.00 0.00 0.00 0.00 0.00 0.00 0.00 0.00 0.00 0.00 0.00 0.01 0.05 0.14 0.11 0.05 0.01 0.00 0.00
0.00 0.00 0.00 0.00 0.00 0.00 0.00 0.00 0.00 0.00 0.00 0.00 0.00 0.00 0.00 0.04 0.05 0.05 0.02 0.01 0.00 0.01
0.00 0.00 0.00 0.00 0.00 0.00 0.00 0.00 0.00 0.00 0.00 0.00 0.00 0.01 0.02 0.01 0.00 0.00 0.00 0.00 0.00 0.00
0.00 0.00 0.00 0.00 0.00 0.00 0.00 0.00 0.00 0.00 0.00 0.00 0.00 0.02 0.03 0.00 0.00 0.00 0.00 0.00 0.00 0.00
0.00 0.00 0.00 0.00 0.00 0.00 0.00 0.00 0.00 0.00 0.00 0.00 0.00 0.01 0.00 0.00 0.00 0.00 0.00 0.00 0.00 0.00
0.00 0.00 0.00 0.00 0.00 0.00 0.00 0.00 0.00 0.00 0.00 0.00 0.00 0.00 0.00 0.00 0.00 0.00 0.00 0.00 0.00 0.00
0.00 0.00 0.00 0.00 0.00 0.00 0.00 0.00 0.00 0.00 0.00 0.00 0.00 0.00 0.00 0.00 0.00 0.00 0.00 0.00 0.00 0.00
0.00 0.00 0.00 0.00 0.00 0.00 0.00 0.00 0.00 0.00 0.00 0.00 0.00 0.00 0.00 0.00 0.00 0.00 0.00 0.00 0.00 0.00
0.00 0.00 0.00 0.00 0.00 0.00 0.00 0.00 0.00 0.00 0.00 0.00 0.00 0.00 0.00 0.00 0.00 0.00 0.00 0.00 0.00 0.00
0.00 0.00 0.00 0.00 0.00 0.00 0.00 0.00 0.00 0.00 0.00 0.00 0.00 0.00 0.00 0.00 0.00 0.00 0.00 0.00 0.00 0.00
MSLP
1010.65 1011.23 1011.68 1012.13 1012.70 1013.25 1013.52 1013.67 1013.84 1014.24 1014.46 1014.52 1014.45 1014.87 1015.26 1015.72 1016.10 1016.44 1016.86 1017.06 1017.26 1017.61
1011.05 1011.41 1011.88 1012.43 1012.78 1013.15 1013.42 1013.65 1013.88 1014.04 1014.28 1014.33 1014.60 1014.90 1015.28 1015.75 1016.05 1016.33 1016.60 1016.82 1017.34 1017.60
1011.44 1011.70 1012.02 1012.46 1012.91 1013.17 1013.39 1013.57 1013.77 1014.03 1014.19 1014.34 1014.65 1014.91 1015.33 1015.75 1016.08 1016.34 1016.61 1016.86 1017.30 1017.52
1011.77 1012.07 1012.38 1012.63 1012.96 1013.20 1013.54 1013.82 1013.95 1014.23 1014.38 1014.45 1014.62 1014.85 1015.27 1015.62 1015.93 1016.26 1016.55 1016.77 1017.10 1017.38
1012.03 1012.32 1012.70 1013.04 1013.23 1013.57 1013.85 1014.00 1014.08 1014.28 1014.49 1014.54 1014.62 1014.79 1014.99 1015.46 1015.82 1016.14 1016.35 1016.70 1017.02 1017.26
1012.28 1012.71 1013.10 1013.37 1013.59 1013.88 1014.08 1014.31 1014.32 1014.50 1014.62 1014.65 1014.69 1014.77 1015.01 1015.45 1015.79 1016.13 1016.48 1016.70 1017.00 1017.21
1012.54 1012.97 1013.40 1013.71 1014.00 1014.13 1014.25 1014.33 1014.42 1014.56 1014.60 1014.70 1014.79 1015.05 1015.40 1015.80 1016.17 1016.53 1016.74 1017.03 1017.21 1017.45
1012.90 1013.38 1013.70 1014.01 1014.16 1014.26 1014.40 1014.51 1014.66 1014.59 1014.64 1014.79 1014.87 1015.22 1015.58 1016.09 1016.56 1016.97 1017.32 1017.62 1017.60 1017.90
1013.26 1013.63 1013.96 1014.23 1014.27 1014.37 1014.69 1014.83 1014.78 1014.80 1014.93 1015.07 1015.42 1015.61 1016.01 1016.44 1017.14 1017.63 1017.95 1018.18 1018.26 1018.43
1013.45 1013.86 1014.21 1014.37 1014.40 1014.78 1015.06 1015.10 1015.14 1015.33 1015.58 1015.84 1016.16 1016.30 1016.74 1017.29 1017.81 1018.36 1018.78 1018.98 1019.40 1019.83
1013.67 1014.10 1014.42 1014.50 1014.79 1015.26 1015.53 1015.61 1015.72 1016.03 1016.29 1016.48 1016.94 1017.16 1017.61 1018.02 1018.57 1019.14 1019.71 1020.06 1020.41 1020.66
1013.83 1014.26 1014.62 1014.83 1015.26 1015.80 1016.03 1016.16 1016.48 1016.92 1017.13 1017.38 1017.95 1018.27 1018.52 1018.84 1019.46 1020.06 1020.52 1020.92 1021.25 1021.46
1013.96 1014.42 1014.81 1015.22 1015.69 1016.34 1016.51 1016.70 1017.22 1017.67 1018.01 1018.40 1018.84 1019.18 1019.37 1019.77 1020.22 1020.75 1021.39 1021.79 1021.99 1022.09
1014.17 1014.65 1015.09 1015.57 1016.15 1016.70 1016.99 1017.26 1017.81 1018.16 1018.82 1019.18 1019.60 1020.05 1020.30 1020.55 1020.84 1021.50 1022.14 1022.54 1022.76 1022.89
Thickness
5652 5650 5648 5644 5640 5635 5632 5628 5626 5619 5614 5611 5609 5606 5603 5600 5597 5594 5590 5590 5588 5585
5641 5642 5640 5635 5634 5630 5627 5623 5619 5614 5609 5608 5604 5601 5598 5594 5592 5590 5589 5588 5584 5582
5632 5633 5632 5630 5627 5624 5621 5618 5615 5609 5606 5602 5598 5595 5591 5588 5586 5584 5584 5584 5581 5580
5623 5624 5624 5624 5621 5619 5614 5611 5608 5603 5599 5596 5593 5590 5587 5584 5583 5580 5581 5582 5581 5579
5615 5616 5616 5615 5613 5610 5607 5605 5603 5598 5594 5592 5589 5586 5583 5580 5580 5579 5580 5579 5578 5576
5608 5608 5608 5607 5605 5603 5601 5599 5597 5593 5590 5588 5586 5583 5580 5577 5577 5577 5577 5577 5575 5574
5601 5601 5601 5599 5597 5596 5595 5595 5593 5590 5589 5586 5584 5580 5575 5574 5573 5573 5574 5572 5572 5570
5593 5593 5593 5592 5592 5591 5591 5590 5588 5589 5588 5585 5583 5580 5577 5573 5571 5570 5569 5567 5566 5563
5585 5587 5587 5587 5588 5587 5586 5585 5586 5587 5585 5583 5580 5579 5575 5573 5568 5565 5563 5561 5559 5557
5580 5580 5580 5582 5583 5582 5580 5581 5581 5581 5579 5577 5574 5573 5569 5566 5563 5559 5556 5554 5549 5545
5574 5574 5575 5578 5578 5575 5574 5575 5575 5574 5573 5571 5568 5567 5563 5560 5557 5553 5548 5545 5541 5538
5568 5569 5571 5572 5572 5568 5568 5568 5567 5565 5564 5564 5560 5558 5557 5554 5549 5544 5541 5537 5533 5530
5563 5565 5566 5567 5566 5562 5562 5562 5560 5557 5557 5555 5552 5550 5550 5546 5542 5538 5532 5528 5526 5525
5559 5560 5561 5562 5560 5558 5557 5558 5555 5554 5550 5549 5546 5543 5541 5539 5536 5532 5527 5524 5520 5519